Regional Weather Roundup
Issued by NWS

Home | Current Version | Previous Version | Graphics & Text | Print | Product List | Glossary On
Versions: 1 2 3 4 5 6 7 8 9 10 11 12 13 14 15 16 17 18 19 20 21 22 23 24 25 26 27 28 29 30 31 32 33 34 35 36 37 38 39 40 41 42 43 44 45 46 47 48 49 50
000
ASUS43 KMKX 220920
RWRWI

WISCONSIN REGIONAL WEATHER ROUNDUP
NATIONAL WEATHER SERVICE MILWAUKEE/SULLIVAN WI
300 AM CST SUN JAN 22 2017

NOTE: "FAIR" INDICATES FEW OR NO CLOUDS BELOW 12,000 FEET WITH NO
SIGNIFICANT WEATHER AND/OR OBSTRUCTIONS TO VISIBILITY.

WIZ001-002-006>008-014>016-023>028-221000-
NORTHWEST WISCONSIN

CITY           SKY/WX    TMP DP  RH WIND       PRES   REMARKS
SUPERIOR ARPT  CLOUDY    35  35 100 N3        29.60R FOG
ASHLAND        FOG       34  33  96 CALM      29.57R VSB 3/4
HAYWARD        FOG       34  33  96 CALM      29.56R VSB 1/2
SIREN          FOG       34  34  99 CALM      29.58R VSB 1
CUMBERLAND     CLOUDY    32  32 100 N7        29.55S FOG     WCI  26
RICE LAKE      CLOUDY    34  34 100 CALM      29.57R FOG
CHETEK         FOG       34  34 100 CALM      29.56R VSB 3/4
LADYSMITH      FOG       34  34  99 CALM      29.56S VSB 1/2
EAU CLAIRE     FOG       34 N/A N/A CALM      29.56R VSB 3/4
MENOMONIE        N/A    N/A N/A N/A MISG        N/A
NEW RICHMOND   FOG       34  34 100 NW6       29.57R VSB 1   WCI  29
OSCEOLA        FOG       34  34 100 NW5       29.60S VSB 1/2 WCI  30
$$

WIZ003>005-009-010-017-018-221000-
NORTH CENTRAL WISCONSIN

CITY           SKY/WX    TMP DP  RH WIND       PRES   REMARKS
MANITOWISH WTR FOG       33  33 100 CALM      29.53R VSB 1/4
ARBOR VITAE    FOG       37  36  97 CALM      29.53S VSB 1/4
WOODRUFF       FOG       37  36  97 CALM      29.53S VSB 1/4
RHINELANDER    FOG       35  35 100 CALM      29.53S VSB 1/4
EAGLE RIVER    FOG       33  33 100 CALM      29.53R VSB 1/4
LAND O LAKES   FOG       35  35 100 CALM      29.54R VSB 3/4
PHILLIPS       FOG       33  33 100 CALM      29.53S VSB 1/2
TOMAHAWK       FOG       33  32  97 CALM      29.54S VSB 3/4
MEDFORD        FOG       33  33  99 W3        29.53S VSB 1/4
MERRILL        FOG       33  33 100 CALM        N/A  VSB 1/2
$$

WIZ029-030-035-036-043>047-221000-
CENTRAL WISCONSIN

CITY           SKY/WX    TMP DP  RH WIND       PRES   REMARKS
WAUSAU         FOG       36  36 100 CALM      29.53R VSB 1/4
MOSINEE        FOG       34  34 100 W3        29.55S VSB 1/4
MARSHFIELD     FOG       36  32  85 W5        29.53S VSB 1/2 WCI  32
STEVENS POINT  FOG       34  34 100 CALM      29.55S VSB 1/4
WAUPACA        FOG       39  38  97 CALM      29.56S VSB 1/2
WAUTOMA        FOG       38  37  97 SW5       29.57R VSB 1/2 WCI  34
WISC RAPIDS    FOG       37  37 100 SW5       29.56R VSB 1/4 WCI  33
CAMP DOUGLAS   CLOUDY    36  36 100 CALM      29.55S
$$

WIZ011>013-019>022-031-037>040-048>050-221000-
NORTHEAST WISCONSIN

CITY           SKY/WX    TMP DP  RH WIND       PRES   REMARKS
ANTIGO         FOG       33  33 100 CALM      29.53S VSB 1/4
SHAWANO        FOG       35  34  96 CALM      29.56S VSB 1/4
OCONTO         CLOUDY    33  33  99 CALM      29.56S VSB 1/2
STURGEON BAY   FOG       36  36 100 CALM      29.57S VSB 1/2
GREEN BAY      FOG       37  37 100 CALM      29.56R VSB 1/4
MANITOWOC      FOG       37  36  93 MISG      29.57S VSB 1/2
APPLETON       FOG       36  36 100 W5        29.54S VSB 1/4 WCI  32
CLINTONVILLE   FOG       34  34 100 CALM      29.56S VSB 1/4
OSHKOSH        FOG       37  36  96 CALM      29.56R VSB 1/4
$$

WIZ032>034-041-042-053>061-221000-
SOUTHWEST WISCONSIN

CITY           SKY/WX    TMP DP  RH WIND       PRES   REMARKS
LA CROSSE      FOG       39  36  89 CALM      29.56S VSB 1/2
SPARTA         CLOUDY    37  37 100 CALM      29.57S FOG
VIROQUA        CLOUDY    35  35 100 SW5       29.55S VSB 1/4 WCI  31
BOSCOBEL       FOG       37  36  96 CALM      29.58S VSB 1/2
PRAIRIE DU CHI CLOUDY    34  34  98 CALM      29.58S FOG
PLATTEVILLE    CLOUDY    35  35 100 CALM      29.58S VSB<1/4
$$

WIZ056-057-062-063-064-067-068-221000-
SOUTH CENTRAL WISCONSIN

CITY           SKY/WX    TMP DP  RH WIND       PRES   REMARKS
REEDSBURG      CLOUDY    37  37 100 CALM      29.56R FOG
BARABOO/DELLS  FOG       38  38  99 SW3       29.56R VSB 1
LONE ROCK      CLOUDY    38  37  97 SW6       29.58R FOG     WCI  33
MINERAL POINT  FOG       37  37 100 W7        29.56S VSB 1/2 WCI  32
MADISON        FOG       39  39 100 CALM      29.58R VSB 1/4
MIDDLETON      CLOUDY    40  40 100 SW3       29.57S VSB 1
WATERTOWN      CLOUDY    38  38 100 S5        29.57S FOG     WCI  35
MONROE         FOG       36  36 100 W7        29.56S VSB 1/4 WCI  30
JANESVILLE     FOG       37  37 100 CALM      29.57S VSB 1/2
$$

WIZ051-052-058>065-066-070>072-221000-
SOUTHEAST WISCONSIN

CITY           SKY/WX    TMP DP  RH WIND       PRES   REMARKS
MILWAUKEE      CLOUDY    41  38  89 CALM      29.57F
WAUKESHA       CLOUDY    37  37 100 SW5       29.58S FOG     WCI  34
MILWAUKEE/TIMM CLOUDY    37  36  93 CALM      29.58S FOG
RACINE         CLOUDY    37  35  92 CALM      29.59S FOG
KENOSHA        FOG       38  38 100 CALM      29.57S VSB 1/4
FOND DU LAC    FOG       39  37  92 SW6       29.56S VSB 1/2 WCI  35
SHEBOYGAN      CLOUDY    37  35  92 W5        29.57R FOG     WCI  33
WEST BEND      CLOUDY    37  37 100 SW3       29.57S FOG
JUNEAU         FOG       38  38  99 SW3       29.57S VSB<1/4
$$

LSZ147-162-221000-
LAKE SUPERIOR

STATION/POSITION TIME  TEMP    WIND        PRES    WAVE
                       AIR SEA DIR/SP/G            HT/PER
                 (UTC) (F)     (DEG/KT/KT) (MB)    (FT/S)
DEVILS ISLAND    0900   36      30/ 11/ 11 1001.9R
PORT WING        0840   34      40/  4/  6 1002.0R
SAXON HARBOR     0830   33     190/  2/  3 1001.4R
$$

LMZ867-665-643>646-221000-
LAKE MICHIGAN

STATION/POSITION TIME  TEMP    WIND        PRES    WAVE
                       AIR SEA DIR/SP/G            HT/PER
                 (UTC) (F)     (DEG/KT/KT) (MB)    (FT/S)
NORTHPORT PIER   0840   37     220/  2/  5 1001.4S
SISTER BAY       0850   36        CALM       N/A
KEWAUNEE LAKESHO 0854   36      CALM  /  1 1000.9S
SHEBOYGAN LAKESH 0900   40     220/  7/  7 1001.5S
PORT WASHINGTON  0840   39      CALM  /  2 1002.7S
KENOSHA   LAKESH 0900   39     200/  4/  5 1002.0
$$

TC  - TEMPERATURE IN CELSIUS
VSB - VISIBILITY IN STATUTE MILES
WCI - WIND CHILL INDEX
HX  - HEAT INDEX





USA.gov is the U.S. government's official web portal to all federal, state and local government web resources and services.